#timestamp,LO_Frequency,Hit,Temp,Hum 
1480352415.1,286046969.0,N,0.0,0.0
1480352416.0,286046969.0,N,0.0,0.0
1480352435.8,286046969.1,N,0.0,0.0
1480352455.6,286046968.1,N,0.0,0.0
1480352475.5,286046966.5,N,0.0,0.0
1480352495.3,286046968.7,N,0.0,0.0
1480352515.2,286046968.2,N,0.0,0.0
1480352535.9,286046968.1,N,0.0,0.0
1480352555.7,286046968.4,N,0.0,0.0
1480352575.6,286046968.5,N,0.0,0.0
1480352595.4,286046967.8,N,0.0,0.0
1480352615.3,286046970.3,N,0.0,0.0
1480352635.1,286046970.2,N,0.0,0.0
1480352636.0,286046970.2,N,0.0,0.0
1480352655.8,286046970.5,N,0.0,0.0
1480352675.7,286046970.0,N,0.0,0.0
1480352695.5,286046970.2,N,0.0,0.0
1480352715.3,286046970.3,N,0.0,0.0
1480352735.2,286046967.8,N,0.0,0.0
1480352755.0,286046967.8,N,0.0,0.0
1480352755.9,286046967.8,N,0.0,0.0
1480352775.8,286046970.3,N,0.0,0.0
1480352795.6,286046970.2,N,0.0,0.0
1480352815.4,286046970.3,N,0.0,0.0
1480352835.3,286046967.7,N,0.0,0.0
1480352855.1,286046970.6,N,0.0,0.0
1480352875.9,286046970.0,N,0.0,0.0
1480352895.7,286046969.6,N,0.0,0.0
1480352915.5,286046969.9,N,0.0,0.0
1480352935.4,286046969.3,N,0.0,0.0
1480352955.2,286046972.1,N,0.0,0.0
1480352975.0,286046971.0,N,0.0,0.0
1480352975.9,286046971.0,N,0.0,0.0
1480352995.8,286046973.6,N,0.0,0.0
1480353015.6,286046973.6,N,0.0,0.0
1480353035.5,286046973.2,N,0.0,0.0
1480353055.3,286046973.2,N,0.0,0.0
1480353075.1,286046972.6,N,0.0,0.0
1480353095.9,286046972.5,N,0.0,0.0
1480353115.7,286046974.8,N,0.0,0.0
1480353135.6,286046974.9,N,0.0,0.0
1480353155.4,286046974.4,N,0.0,0.0
1480353175.2,286046975.3,N,0.0,0.0
1480353195.1,286046974.4,N,0.0,0.0
1480353196.0,286046974.4,N,0.0,0.0
1480353215.8,286046974.6,N,0.0,0.0
1480353235.6,286046977.0,N,0.0,0.0
1480353255.5,286046975.9,N,0.0,0.0
1480353275.3,286046975.9,N,0.0,0.0
1480353295.2,286046975.8,N,0.0,0.0
1480353315.9,286046978.7,N,0.0,0.0
1480353335.7,286046980.4,N,0.0,0.0
1480353355.6,286046979.6,N,0.0,0.0
1480353375.4,286046978.9,N,0.0,0.0
1480353395.2,286046979.3,N,0.0,0.0
1480353415.1,286046979.2,N,0.0,0.0
1480353416.0,286046979.2,N,0.0,0.0
1480353435.8,286046981.9,N,0.0,0.0
1480353455.7,286046982.0,N,0.0,0.0
1480353475.5,286046981.6,N,0.0,0.0
1480353495.3,286046981.1,N,0.0,0.0
1480353515.2,286046980.6,N,0.0,0.0
1480353535.0,286046983.4,N,0.0,0.0
1480353535.9,286046983.4,N,0.0,0.0
1480353555.8,286046982.7,N,0.0,0.0
1480353575.6,286046982.3,N,0.0,0.0
1480353595.4,286046982.4,N,0.0,0.0
1480353615.3,286046982.1,N,0.0,0.0
1480353635.1,286046985.2,N,0.0,0.0
1480353655.9,286046984.8,N,0.0,0.0
1480353675.7,286046985.2,N,0.0,0.0
1480353695.5,286046986.7,N,0.0,0.0
1480353715.4,286046985.6,N,0.0,0.0
1480353735.2,286046985.7,N,0.0,0.0
1480353755.0,286046987.6,N,0.0,0.0
1480353755.9,286046987.6,N,0.0,0.0
1480353775.8,286046989.3,N,0.0,0.0
1480353795.6,286046988.6,N,0.0,0.0
1480353815.5,286046988.9,N,0.0,0.0
1480353835.3,286046988.8,N,0.0,0.0
1480353855.1,286046988.8,N,0.0,0.0
1480353875.9,286046987.8,N,0.0,0.0
1480353895.7,286046987.6,N,0.0,0.0
1480353915.6,286046988.5,N,0.0,0.0
1480353935.4,286046989.5,N,0.0,0.0
1480353955.2,286046989.0,N,0.0,0.0
1480353975.1,286046989.0,N,0.0,0.0
1480353976.0,286046989.0,N,0.0,0.0
1480353995.8,286046989.8,N,0.0,0.0
1480354015.6,286046989.5,N,0.0,0.0
1480354035.5,286046988.7,N,0.0,0.0
1480354055.3,286046991.3,N,0.0,0.0
1480354075.2,286046993.0,N,0.0,0.0
1480354095.9,286046992.9,N,0.0,0.0
1480354115.7,286046993.1,N,0.0,0.0
1480354135.6,286046992.8,N,0.0,0.0
1480354155.4,286046992.1,N,0.0,0.0
1480354175.2,286046992.1,N,0.0,0.0
1480354195.1,286046990.4,N,0.0,0.0
1480354196.0,286046990.4,N,0.0,0.0
1480354215.8,286046992.2,N,0.0,0.0
1480354235.7,286046990.3,N,0.0,0.0
1480354255.5,286046992.3,N,0.0,0.0
1480354275.3,286046992.3,N,0.0,0.0
1480354295.2,286046992.0,N,0.0,0.0
1480354315.0,286046993.2,N,0.0,0.0
1480354315.9,286046993.2,N,0.0,0.0
1480354335.8,286046990.7,N,0.0,0.0
1480354355.6,286046990.7,N,0.0,0.0
1480354375.4,286046990.1,N,0.0,0.0
1480354395.3,286046990.3,N,0.0,0.0
1480354415.1,286046992.5,N,0.0,0.0
1480354435.9,286046992.1,N,0.0,0.0
1480354455.7,286046992.3,N,0.0,0.0
1480354475.5,286046992.2,N,0.0,0.0
1480354495.4,286046994.6,N,0.0,0.0
1480354515.2,286046992.1,N,0.0,0.0
1480354535.0,286046992.1,N,0.0,0.0
1480354535.9,286046992.1,N,0.0,0.0
1480354555.8,286046992.0,N,0.0,0.0
1480354575.6,286046994.7,N,0.0,0.0
1480354595.5,286046994.4,N,0.0,0.0
1480354615.3,286046992.9,N,0.0,0.0
1480354635.1,286046991.7,N,0.0,0.0
1480354655.9,286046996.3,N,0.0,0.0
1480354675.7,286046995.6,N,0.0,0.0
1480354695.6,286046995.5,N,0.0,0.0
1480354715.4,286046995.9,N,0.0,0.0
1480354735.2,286046995.0,N,0.0,0.0
1480354755.1,286046996.4,N,0.0,0.0
1480354756.0,286046996.4,N,0.0,0.0
1480354775.8,286046993.3,N,0.0,0.0
1480354795.6,286046993.4,N,0.0,0.0
1480354815.5,286046991.7,N,0.0,0.0
1480354835.3,286046992.1,N,0.0,0.0
1480354855.2,286046991.9,N,0.0,0.0
1480354875.9,286046994.8,N,0.0,0.0
1480354895.7,286046992.7,N,0.0,0.0
1480354915.6,286046990.5,N,0.0,0.0
1480354935.4,286046993.2,N,0.0,0.0
1480354955.3,286046990.2,N,0.0,0.0
1480354975.1,286046991.9,N,0.0,0.0
1480354976.0,286046991.9,N,0.0,0.0
1480354995.8,286046991.7,N,0.0,0.0
1480355015.7,286046992.0,N,0.0,0.0
1480355035.5,286046992.7,N,0.0,0.0
1480355055.3,286046992.8,N,0.0,0.0
1480355075.2,286046993.2,N,0.0,0.0
1480355095.0,286046990.7,N,0.0,0.0
1480355095.9,286046990.7,N,0.0,0.0
1480355115.8,286046992.6,N,0.0,0.0
1480355135.6,286046993.0,N,0.0,0.0
1480355155.4,286046990.5,N,0.0,0.0
1480355175.3,286046990.5,N,0.0,0.0
1480355195.1,286046993.0,N,0.0,0.0
1480355215.8,286046991.8,N,0.0,0.0
1480355235.7,286046993.0,N,0.0,0.0
1480355255.5,286046990.6,N,0.0,0.0
1480355275.4,286046990.9,N,0.0,0.0
1480355295.2,286046988.5,N,0.0,0.0
1480355315.0,286046989.7,N,0.0,0.0
1480355315.9,286046989.7,N,0.0,0.0
1480355335.8,286046989.5,N,0.0,0.0
1480355355.6,286046989.7,N,0.0,0.0
1480355375.4,286046989.7,N,0.0,0.0
1480355395.3,286046989.5,N,0.0,0.0
1480355415.1,286046989.2,N,0.0,0.0
1480355435.9,286046988.8,N,0.0,0.0
1480355455.7,286046990.0,N,0.0,0.0
1480355475.5,286046988.1,N,0.0,0.0
1480355495.4,286046987.9,N,0.0,0.0
1480355515.2,286046988.3,N,0.0,0.0
1480355535.0,286046985.6,N,0.0,0.0
1480355536.0,286046985.6,N,0.0,0.0
1480355555.8,286046985.8,N,0.0,0.0
1480355575.6,286046986.1,N,0.0,0.0
1480355595.5,286046985.9,N,0.0,0.0
1480355615.3,286046986.4,N,0.0,0.0
1480355635.1,286046986.2,N,0.0,0.0
1480355655.9,286046986.6,N,0.0,0.0
1480355675.7,286046983.9,N,0.0,0.0
1480355695.6,286046984.6,N,0.0,0.0
1480355715.4,286046984.5,N,0.0,0.0
1480355735.2,286046986.6,N,0.0,0.0
1480355755.1,286046986.1,N,0.0,0.0
1480355756.0,286046986.1,N,0.0,0.0
1480355775.8,286046984.1,N,0.0,0.0
1480355795.6,286046984.0,N,0.0,0.0
1480355815.5,286046986.0,N,0.0,0.0
1480355835.3,286046986.4,N,0.0,0.0
1480355855.2,286046984.3,N,0.0,0.0
1480355875.9,286046982.1,N,0.0,0.0
1480355895.7,286046982.4,N,0.0,0.0
1480355915.6,286046982.6,N,0.0,0.0
1480355935.4,286046982.6,N,0.0,0.0
1480355955.3,286046982.9,N,0.0,0.0
1480355975.1,286046983.5,N,0.0,0.0
1480355976.0,286046983.5,N,0.0,0.0
1480355995.8,286046980.9,N,0.0,0.0
